This demonstration page uses our WeatherBlox Daily Observations layout. Learn more.

Left ArrowRight Arrow

38.88101, -77.10428

Hourly Observations for May 24, 2016

Temp ( °F °C ) Dew Point ( °F °C ) Humidity (%) Winds ( mph kmh ) Pressure ( in mb ) Visibility ( mi km ) Precip ( " mm )
12:52 am 00:52 Cloudy with Light Rain 61 16.1 57 13.9 87 87 WNW 7 11 29.95 1014 10 16 N/A
1:52 am 01:52 Cloudy with Light Rain 62 16.7 56 13.3 80 80 N N/A 29.94 1014 10 16 N/A
2:52 am 02:52 Mostly Cloudy 61 16.1 57 13.9 87 87 SW 3 6 29.94 1014 10 16 N/A
3:52 am 03:52 Cloudy 59 15 57 13.9 93 93 SW 5 7 29.94 1014 10 16 N/A
4:52 am 04:52 Mostly Cloudy 59 15 56 13.3 90 90 SSW 6 9 29.94 1014 10 16 N/A
5:52 am 05:52 Partly Cloudy 57 13.9 55 12.8 93 93 SSW 6 9 29.95 1014 10 16 N/A
6:52 am 06:52 Partly Cloudy 61 16.1 54 12.2 78 78 W 8 13 29.96 1015 10 16 N/A
7:52 am 07:52 Partly Cloudy 65 18.3 55 12.8 70 70 NW 8 13 29.99 1016 10 16 N/A
8:52 am 08:52 Partly Cloudy 69 20.6 54 12.2 59 59 NW 14 22 30.00 1016 10 16 N/A
9:52 am 09:52 Partly Cloudy 71 21.7 55 12.8 57 57 NW 15 24 30.01 1016 10 16 N/A
10:52 am 10:52 Mostly Sunny 74 23.3 55 12.8 52 52 NW 10 17 30.01 1016 10 16 N/A
11:52 am 11:52 Partly Cloudy 77 25 56 13.3 48 48 NNW 10 17 30.02 1017 10 16 N/A
12:52 pm 12:52 Partly Cloudy 79 26.1 54 12.2 42 42 NW 9 15 30.01 1016 10 16 N/A
1:52 pm 13:52 Partly Cloudy 81 27.2 48 8.9 32 32 NW 17 28 30.00 1016 10 16 N/A
2:52 pm 14:52 Partly Cloudy 82 27.8 48 8.9 31 31 NW 17 28 29.98 1015 10 16 N/A
3:52 pm 15:52 Partly Cloudy 83 28.3 49 9.4 31 31 NW 15 24 29.98 1015 10 16 N/A
4:52 pm 16:52 Mostly Cloudy 83 28.3 50 10 32 32 WNW 10 17 29.98 1015 10 16 N/A
5:52 pm 17:52 Mostly Cloudy 83 28.3 49 9.4 31 31 WNW 13 20 29.98 1015 10 16 N/A
6:52 pm 18:52 Partly Cloudy 82 27.8 48 8.9 31 31 NW 13 20 29.99 1016 10 16 N/A
7:52 pm 19:52 Partly Cloudy 80 26.7 47 8.3 31 31 NW 10 17 30.01 1016 10 16 N/A
8:52 pm 20:52 Clear 78 25.6 46 7.8 32 32 WNW 5 7 30.01 1016 10 16 N/A
9:52 pm 21:52 Mostly Clear 72 22.2 51 10.6 48 48 WSW 3 6 30.04 1017 10 16 N/A
10:52 pm 22:52 Mostly Clear 67 19.4 56 13.3 68 68 SSW 5 7 30.05 1018 10 16 N/A
11:52 pm 23:52 Mostly Clear 65 18.3 57 13.9 76 76 S 6 9 30.06 1018 10 16 N/A

Powered by AerisWeather